FW4751 Weather Reports


time (UTC)temp
C
wind
direction
speed
KPH
gust
KPH
rain 1hr
cm
rain 24hr
cm
rain mn
cm
humidity
%
barometer
mb
20260906193504 22 45 3.2 6.4 0.00 0.00 0.00 61 1015.4
20260906193008 22 45 3.2 6.4 0.00 0.00 0.00 60 1015.4
20260906192504 22 45 1.6 8.0 0.00 0.00 0.00 61 1015.6
20260906192004 22 338 3.2 8.0 0.00 0.00 0.00 60 1015.6
20260906191509 21 45 3.2 6.4 0.00 0.00 0.00 60 1015.6
20260906191009 22 45 3.2 6.4 0.00 0.00 0.00 58 1015.6
20260906190504 22 45 3.2 6.4 0.00 0.00 0.00 58 1015.6
20260906190004 22 45 1.6 4.8 0.00 0.00 0.00 58 1015.6
20260906185503 22 45 1.6 6.4 0.00 0.00 0.00 58 1015.7
20260906185004 22 45 1.6 6.4 0.00 0.00 0.00 58 1015.6
20260906184503 22 135 1.6 4.8 0.00 0.00 0.00 59 1015.8
20260906184009 22 113 1.6 8.0 0.00 0.00 0.00 59 1015.9
20260906183509 22 113 1.6 8.0 0.00 0.00 0.00 60 1015.8
20260906183009 22 45 1.6 6.4 0.00 0.00 0.00 60 1015.9
20260906182509 22 45 3.2 6.4 0.00 0.00 0.00 59 1015.9
20260906182009 23 135 3.2 8.0 0.00 0.00 0.00 57 1015.8
20260906181523 22 135 1.6 4.8 0.00 0.00 0.00 59 1015.8
20260906181144 22 135 1.6 6.4 0.00 0.00 0.00 60 1015.8
20260906180508 22 135 1.6 4.8 0.00 0.00 0.00 60 1015.9
20260906180004 21 135 1.6 4.8 0.00 0.00 0.00 62 1015.9
20260906175504 21 135 3.2 8.0 0.00 0.00 0.00 63 1015.8
20260906175008 21 135 1.6 6.4 0.00 0.00 0.00 63 1016.0
20260906174508 21 135 1.6 3.2 0.00 0.00 0.00 65 1015.9
20260906174004 20 45 1.6 4.8 0.00 0.00 0.00 65 1015.9
20260906173508 20 45 1.6 6.4 0.00 0.00 0.00 66 1015.9
20260906172504 20 135 3.2 6.4 0.00 0.00 0.00 67 1016.0
20260906172003 20 45 1.6 3.2 0.00 0.00 0.00 67 1016.0
20260906171508 20 45 1.6 4.8 0.00 0.00 0.00 67 1016.0
20260906171048 20 45 1.6 6.4 0.00 0.00 0.00 67 1015.9
20260906170508 20 315 1.6 4.8 0.00 0.00 0.00 68 1015.9
20260906170008 19 315 1.6 3.2 0.00 0.00 0.00 69 1015.9
20260906165503 19 45 1.6 4.8 0.00 0.00 0.00 68 1016.0
20260906165008 19 45 1.6 3.2 0.00 0.00 0.00 68 1016.0
20260906164508 19 113 1.6 3.2 0.00 0.00 0.00 69 1015.9
20260906164003 19 0.0 1.6 0.00 0.00 0.00 70 1015.9
20260906163549 18 225 1.6 3.2 0.00 0.00 0.00 71 1016.0
20260906163008 18 0.0 3.2 0.00 0.00 0.00 71 1015.9
20260906162529 18 135 1.6 4.8 0.00 0.00 0.00 72 1015.9
20260906162008 18 135 1.6 3.2 0.00 0.00 0.00 73 1016.0
20260906161503 18 0 1.6 3.2 0.00 0.00 0.00 74 1016.1
20260906161003 17 135 1.6 3.2 0.00 0.00 0.00 76 1016.1
20260906160529 17 158 1.6 3.2 0.00 0.00 0.00 77 1016.3
20260906160008 17 0.0 3.2 0.00 0.00 0.00 78 1016.1
20260906155509 17 180 1.6 3.2 0.00 0.00 0.00 79 1016.2
20260906155003 16 203 1.6 3.2 0.00 0.00 0.00 80 1016.2
20260906154508 16 135 1.6 3.2 0.00 0.00 0.00 81 1016.2
20260906154003 16 135 1.6 3.2 0.00 0.00 0.00 81 1016.2
20260906153508 15 135 1.6 3.2 0.00 0.00 0.00 81 1016.4
20260906153003 15 225 1.6 3.2 0.00 0.00 0.00 81 1016.3
20260906152508 15 0.0 3.2 0.00 0.00 0.00 81 1016.3
20260906152008 15 315 1.6 3.2 0.00 0.00 0.00 82 1016.4
20260906151508 14 315 1.6 3.2 0.00 0.00 0.00 85 1016.4
20260906151008 13 0.0 1.6 0.00 0.00 0.00 90 1016.3
20260906150503 12 0.0 1.6 0.00 0.00 0.00 91 1016.2
20260906150003 11 0.0 1.6 0.00 0.00 0.00 90 1016.3
20260906145503 11 0.0 1.6 0.00 0.00 0.00 90 1016.3
20260906145003 11 0.0 1.6 0.00 0.00 0.00 90 1016.2
20260906144503 10 0.0 1.6 0.00 0.00 0.00 90 1016.1
20260906144008 10 0.0 1.6 0.00 0.00 0.00 90 1016.1
20260906143508 10 0.0 1.6 0.00 0.00 0.00 89 1016.0
20260906143048 10 0.0 1.6 0.00 0.00 0.00 89 1016.0
20260906142548 10 0.0 1.6 0.00 0.00 0.00 89 1015.9
20260906142008 10 0.0 1.6 0.00 0.00 0.00 88 1016.0
20260906141503 10 0.0 1.6 0.00 0.00 0.00 88 1015.8
20260906141003 10 0.0 1.6 0.00 0.00 0.00 88 1015.8
20260906140503 10 0.0 1.6 0.00 0.00 0.00 88 1015.9
20260906140005 10 0.0 1.6 0.00 0.00 0.00 88 1015.8
20260906135505 10 0.0 1.6 0.00 0.00 0.00 88 1015.8
20260906135010 10 0.0 1.6 0.00 0.00 0.00 88 1015.7
20260906134550 10 0.0 1.6 0.00 0.00 0.00 88 1015.7
20260906134005 10 0.0 1.6 0.00 0.00 0.00 88 1015.6
20260906133510 10 0.0 1.6 0.00 0.00 0.00 87 1015.6
20260906133005 10 0.0 1.6 0.00 0.00 0.00 87 1015.6
20260906132505 10 0.0 1.6 0.00 0.00 0.00 87 1015.5
20260906132009 10 0.0 1.6 0.00 0.00 0.00 87 1015.4
20260906131505 10 0.0 1.6 0.00 0.00 0.00 87 1015.4
20260906131010 10 0.0 1.6 0.00 0.00 0.00 87 1015.3
20260906130525 10 0.0 1.6 0.00 0.00 0.00 87 1015.3
20260906130010 10 0.0 1.6 0.00 0.00 0.00 87 1015.4
20260906125505 10 0.0 1.6 0.00 0.00 0.00 87 1015.4
20260906125025 10 0.0 1.6 0.00 0.00 0.00 87 1015.3
20260906124505 10 0.0 1.6 0.00 0.00 0.00 87 1015.2
20260906124025 10 0.0 1.6 0.00 0.00 0.00 87 1015.3
20260906123510 10 0.0 1.6 0.00 0.00 0.00 86 1015.3
20260906123006 10 0.0 1.6 0.00 0.00 0.00 86 1015.3
20260906122504 10 0.0 1.6 0.00 0.00 0.00 86 1015.2
20260906122009 10 0.0 1.6 0.00 0.00 0.00 86 1015.3
20260906121505 10 0.0 1.6 0.00 0.00 0.00 86 1015.3
20260906121010 10 0.0 1.6 0.00 0.00 0.00 86 1015.2
20260906120510 10 0.0 1.6 0.00 0.00 0.00 85 1015.3
20260906120009 11 0.0 1.6 0.00 0.00 0.00 86 1015.2
20260906115504 11 0.0 1.6 0.00 0.00 0.00 86 1015.3
20260906115010 11 0.0 1.6 0.00 0.00 0.00 86 1015.2
20260906114509 11 0.0 1.6 0.00 0.00 0.00 85 1015.2
20260906114030 11 0.0 1.6 0.00 0.00 0.00 85 1015.2
20260906113510 11 0.0 1.6 0.00 0.00 0.00 85 1015.2
20260906113005 11 0.0 1.6 0.00 0.00 0.00 85 1015.2
20260906112505 11 0.0 1.6 0.00 0.00 0.00 85 1015.1
20260906112004 11 0.0 1.6 0.00 0.00 0.00 85 1015.2
20260906111505 11 0.0 3.2 0.00 0.00 0.00 84 1015.1
20260906111010 11 0.0 3.2 0.00 0.00 0.00 84 1015.0
20260906110510 11 0.0 1.6 0.00 0.00 0.00 84 1015.0
20260906110009 11 0.0 1.6 0.00 0.00 0.00 84 1014.9
20260906105510 11 0.0 1.6 0.00 0.00 0.00 84 1014.8
20260906105005 11 0.0 1.6 0.00 0.00 0.00 84 1014.8
20260906104504 11 0.0 1.6 0.00 0.00 0.00 84 1014.9
20260906104029 11 0.0 1.6 0.00 0.00 0.00 84 1014.9
20260906103525 12 0.0 1.6 0.00 0.00 0.00 84 1014.9
20260906103030 12 0.0 1.6 0.00 0.00 0.00 84 1014.9
20260906102524 12 0.0 1.6 0.00 0.00 0.00 84 1014.9
20260906102010 12 0.0 1.6 0.00 0.00 0.00 84 1015.0
20260906101507 12 0.0 1.6 0.00 0.00 0.00 84 1015.0
20260906101009 12 0.0 1.6 0.00 0.00 0.00 84 1015.0
20260906100504 12 0.0 1.6 0.00 0.00 0.00 84 1015.0
20260906100004 12 0.0 1.6 0.00 0.00 0.00 84 1014.9
20260906095509 12 0.0 1.6 0.00 0.00 0.00 84 1014.9
20260906095009 12 0.0 1.6 0.00 0.00 0.00 84 1014.9
20260906094509 12 0.0 1.6 0.00 0.00 0.00 83 1015.1
20260906094029 12 0.0 1.6 0.00 0.00 0.00 83 1014.9
20260906093509 12 0.0 1.6 0.00 0.00 0.00 83 1014.9
20260906093009 12 0.0 1.6 0.00 0.00 0.00 83 1014.9
20260906092504 12 0.0 1.6 0.00 0.00 0.00 83 1014.8
20260906092004 12 0.0 1.6 0.00 0.00 0.00 82 1014.9
20260906091529 12 0.0 1.6 0.00 0.00 0.00 82 1014.9
20260906091029 12 0.0 1.6 0.00 0.00 0.00 81 1014.8
20260906090504 12 0.0 1.6 0.00 0.00 0.00 81 1015.0
20260906090024 12 0.0 1.6 0.00 0.00 0.00 81 1015.1
20260906085505 12 0.0 1.6 0.00 0.00 0.00 81 1015.1
20260906085009 12 0.0 0.0 0.00 0.00 0.00 81 1014.9
20260906084504 12 0.0 1.6 0.00 0.00 0.00 80 1015.1
20260906084004 12 0.0 1.6 0.00 0.00 0.00 80 1015.1
20260906083504 12 0.0 1.6 0.00 0.00 0.00 80 1015.1
20260906083009 12 0.0 1.6 0.00 0.00 0.00 80 1015.0
20260906082505 12 0.0 1.6 0.00 0.00 0.00 80 1015.0
20260906082009 12 0.0 1.6 0.00 0.00 0.00 79 1014.9
20260906081504 12 0.0 1.6 0.00 0.00 0.00 79 1014.9
20260906081004 13 0.0 1.6 0.00 0.00 0.00 79 1015.0
20260906080625 13 0.0 1.6 0.00 0.00 0.00 79 1015.0
20260906080004 13 0.0 1.6 0.00 0.00 0.00 79 1014.9
20260906075510 13 0.0 1.6 0.00 0.00 0.00 79 1014.9
20260906075009 13 0.0 1.6 0.00 0.00 0.00 79 1014.9
20260906074504 13 0.0 1.6 0.00 0.00 0.00 78 1015.1
20260906074029 13 0.0 1.6 0.00 0.00 0.00 78 1015.0
20260906073504 13 0.0 1.6 0.00 0.00 0.00 78 1015.0
20260906073004 13 0.0 0.0 0.00 0.00 0.00 78 1014.9
20260906072509 13 0.0 1.6 0.00 0.00 0.00 77 1015.0
20260906072004 13 0.0 1.6 0.00 0.00 0.00 76 1015.0
20260906071504 13 0.0 1.6 0.00 0.00 0.00 76 1015.0
20260906071004 13 0.0 1.6 0.00 0.00 0.00 76 1015.1
20260906070504 13 0.0 1.6 0.00 0.00 0.00 75 1015.0
20260906070006 14 0.0 1.6 0.00 0.00 0.00 75 1015.0
20260906065504 14 0.0 1.6 0.00 0.00 0.00 74 1015.0
20260906065004 14 0.0 1.6 0.00 0.00 0.00 74 1015.0
20260906064509 14 0.0 1.6 0.00 0.00 0.00 74 1015.2
20260906064004 14 0.0 1.6 0.00 0.00 0.00 74 1015.0
20260906063549 15 0.0 1.6 0.00 0.00 0.00 73 1015.1
20260906063004 15 0.0 1.6 0.00 0.00 0.00 71 1015.2
20260906062504 15 0.0 1.6 0.00 0.00 0.00 71 1015.2
20260906062004 15 0.0 1.6 0.00 0.00 0.00 71 1015.3
20260906061525 15 0.0 1.6 0.00 0.00 0.00 70 1015.2
20260906061004 15 0.0 1.6 0.00 0.00 0.00 71 1015.4
20260906060504 15 0.0 1.6 0.00 0.00 0.00 71 1015.3
20260906060024 15 0.0 1.6 0.00 0.00 0.00 70 1015.4
20260906055504 16 0.0 1.6 0.00 0.00 0.00 70 1015.4
20260906055009 16 0.0 1.6 0.00 0.00 0.00 69 1015.4
20260906054524 16 0.0 1.6 0.00 0.00 0.00 69 1015.4
20260906054004 16 0.0 1.6 0.00 0.00 0.00 69 1015.4
20260906053504 16 0.0 1.6 0.00 0.00 0.00 69 1015.5
20260906053004 16 0.0 1.6 0.00 0.00 0.00 69 1015.5
20260906052504 16 0.0 1.6 0.00 0.00 0.00 68 1015.6
20260906052024 16 0.0 0.0 0.00 0.00 0.00 68 1015.6
20260906051524 16 0.0 1.6 0.00 0.00 0.00 68 1015.6
20260906051004 16 0.0 3.2 0.00 0.00 0.00 68 1015.7
20260906050504 16 0.0 3.2 0.00 0.00 0.00 68 1015.7
20260906050004 16 0.0 3.2 0.00 0.00 0.00 68 1015.6
20260906045508 16 315 1.6 4.8 0.00 0.00 0.00 68 1015.6
20260906045003 16 315 1.6 4.8 0.00 0.00 0.00 69 1015.6
20260906044504 16 315 1.6 6.4 0.00 0.00 0.00 69 1015.6
20260906044004 16 315 1.6 8.0 0.00 0.00 0.00 69 1015.6
20260906043529 16 315 1.6 6.4 0.00 0.00 0.00 69 1015.6
20260906043004 16 315 1.6 4.8 0.00 0.00 0.00 69 1015.7
20260906042508 17 315 1.6 6.4 0.00 0.00 0.00 70 1015.5
20260906042009 17 338 1.6 6.4 0.00 0.00 0.00 70 1015.6
20260906041503 17 315 1.6 4.8 0.00 0.00 0.00 70 1015.4
20260906041008 17 338 1.6 4.8 0.00 0.00 0.00 69 1015.3
20260906040503 17 338 1.6 6.4 0.00 0.00 0.00 69 1015.5
20260906040004 17 0 1.6 4.8 0.00 0.00 0.00 69 1015.2
20260906035503 17 338 1.6 4.8 0.00 0.00 0.00 69 1015.1
20260906035004 17 338 1.6 4.8 0.00 0.00 0.00 69 1015.1
20260906034509 17 338 1.6 6.4 0.00 0.00 0.00 69 1015.1
20260906034008 17 338 1.6 6.4 0.00 0.00 0.00 69 1015.0
20260906033508 17 338 1.6 6.4 0.00 0.00 0.00 68 1015.0
20260906033003 17 338 1.6 4.8 0.00 0.00 0.00 68 1014.9
20260906032509 17 338 1.6 6.4 0.00 0.00 0.00 68 1014.9
20260906032008 17 338 1.6 6.4 0.00 0.00 0.00 68 1015.2
20260906031508 18 338 1.6 8.0 0.00 0.00 0.00 68 1014.7
20260906031023 18 315 1.6 3.2 0.00 0.00 0.00 68 1014.5
20260906030509 18 338 1.6 6.4 0.00 0.00 0.00 68 1014.6
20260906030004 18 338 1.6 6.4 0.00 0.00 0.00 67 1014.6
20260906025508 18 315 3.2 6.4 0.00 0.00 0.00 67 1014.5
20260906025028 18 338 1.6 4.8 0.00 0.00 0.00 66 1014.3
20260906024508 18 338 1.6 9.7 0.00 0.00 0.00 65 1014.2
20260906024008 18 338 3.2 6.4 0.00 0.00 0.00 65 1014.2
20260906023508 19 338 3.2 8.0 0.00 0.00 0.00 64 1014.2
20260906023008 19 338 1.6 6.4 0.00 0.00 0.00 64 1014.2
20260906022504 19 338 3.2 8.0 0.00 0.00 0.00 64 1014.3
20260906022008 19 0 1.6 6.4 0.00 0.00 0.00 63 1014.2
20260906021503 20 0 3.2 9.7 0.00 0.00 0.00 62 1014.2
20260906021008 20 0 3.2 6.4 0.00 0.00 0.00 61 1014.2
20260906020508 20 338 1.6 6.4 0.00 0.00 0.00 60 1014.2
20260906020003 21 45 3.2 6.4 0.00 0.00 0.00 59 1014.2
20260906015503 21 23 3.2 8.0 0.00 0.00 0.00 57 1014.1
20260906015043 21 0 3.2 8.0 0.00 0.00 0.00 55 1014.1
20260906014508 21 338 3.2 8.0 0.00 0.00 0.00 54 1014.1
20260906014008 21 315 1.6 6.4 0.00 0.00 0.00 54 1014.0
20260906013508 22 338 3.2 8.0 0.00 0.00 0.00 54 1014.0
20260906013008 22 338 1.6 8.0 0.00 0.00 0.00 54 1014.0
20260906012503 22 45 3.2 9.7 0.00 0.00 0.00 54 1013.9
20260906012008 22 338 1.6 8.0 0.00 0.00 0.00 53 1014.0
20260906011508 22 338 1.6 11.3 0.00 0.00 0.00 52 1014.0
20260906011008 22 338 3.2 11.3 0.00 0.00 0.00 52 1014.0
20260906010508 23 23 4.8 11.3 0.00 0.00 0.00 50 1013.9
20260906010003 23 0 3.2 9.7 0.00 0.00 0.00 49 1013.8
20260906005528 23 338 4.8 11.3 0.00 0.00 0.00 47 1013.9
20260906005003 23 315 3.2 9.7 0.00 0.00 0.00 45 1013.8
20260906004508 23 338 4.8 11.3 0.00 0.00 0.00 43 1013.7
20260906004028 24 338 3.2 12.9 0.00 0.00 0.00 44 1013.8
20260906003508 24 23 4.8 11.3 0.00 0.00 0.00 42 1013.7
20260906003003 25 338 4.8 16.1 0.00 0.00 0.00 41 1013.7
20260906002508 25 338 3.2 12.9 0.00 0.00 0.00 39 1013.7
20260906002008 25 338 3.2 14.5 0.00 0.00 0.00 39 1013.8
20260906001503 26 338 3.2 11.3 0.00 0.00 0.00 39 1013.7
20260906001003 26 338 3.2 9.7 0.00 0.00 0.00 39 1013.6
20260906000508 26 315 3.2 8.0 0.00 0.00 0.00 39 1013.7
20260906000003 26 315 3.2 9.7 0.00 0.00 0.00 39 1013.7
20260905235503 25 315 3.2 11.3 0.00 0.00 0.00 41 1013.6
20260905235003 25 23 3.2 8.0 0.00 0.00 0.00 46 1013.6
20260905234523 24 338 3.2 9.7 0.00 0.00 0.00 48 1013.6
20260905234008 24 45 4.8 12.9 0.00 0.00 0.00 48 1013.6
20260905233525 24 45 4.8 11.3 0.00 0.00 0.00 48 1013.7
20260905233005 24 45 4.8 12.9 0.00 0.00 0.00 48 1013.7
20260905232505 24 23 4.8 12.9 0.00 0.00 0.00 47 1013.6
20260905232010 24 0 3.2 9.7 0.00 0.00 0.00 46 1013.6
20260905231505 24 45 4.8 12.9 0.00 0.00 0.00 46 1013.6
20260905231005 24 45 4.8 12.9 0.00 0.00 0.00 46 1013.6
20260905230505 25 45 4.8 12.9 0.00 0.00 0.00 45 1013.7
20260905230003 25 23 4.8 14.5 0.00 0.00 0.00 45 1013.8
20260905225510 25 23 4.8 16.1 0.00 0.00 0.00 44 1013.9
20260905225010 25 23 4.8 14.5 0.00 0.00 0.00 44 1013.9
20260905224510 25 0 4.8 12.9 0.00 0.00 0.00 44 1014.1
20260905224009 25 23 4.8 12.9 0.00 0.00 0.00 45 1013.9
20260905223525 25 23 4.8 12.9 0.00 0.00 0.00 46 1013.9
20260905223009 25 45 6.4 16.1 0.00 0.00 0.00 48 1013.9
20260905222525 24 45 4.8 11.3 0.00 0.00 0.00 50 1013.9
20260905222010 24 45 4.8 12.9 0.00 0.00 0.00 52 1013.9
20260905221529 23 45 4.8 12.9 0.00 0.00 0.00 53 1014.0
20260905221025 23 45 4.8 11.3 0.00 0.00 0.00 54 1014.0
20260905220505 23 23 6.4 12.9 0.00 0.00 0.00 53 1014.0
20260905220009 23 23 6.4 16.1 0.00 0.00 0.00 51 1014.1
20260905215509 23 23 4.8 12.9 0.00 0.00 0.00 51 1014.2
20260905215009 23 23 4.8 12.9 0.00 0.00 0.00 53 1014.2
20260905214509 22 338 4.8 12.9 0.00 0.00 0.00 55 1014.3
20260905214010 22 23 6.4 16.1 0.00 0.00 0.00 55 1014.4
20260905213509 22 45 4.8 12.9 0.00 0.00 0.00 52 1014.3
20260905213025 22 338 4.8 11.3 0.00 0.00 0.00 49 1014.3
20260905212510 23 23 4.8 11.3 0.00 0.00 0.00 49 1014.4
20260905212009 23 45 3.2 8.0 0.00 0.00 0.00 51 1014.3
20260905211505 23 338 3.2 11.3 0.00 0.00 0.00 49 1014.5
20260905211005 23 315 3.2 9.7 0.00 0.00 0.00 49 1014.4
20260905210504 23 0 4.8 12.9 0.00 0.00 0.00 49 1014.4
20260905210010 23 45 3.2 11.3 0.00 0.00 0.00 49 1014.5
20260905205504 23 23 4.8 12.9 0.00 0.00 0.00 50 1014.4
20260905205009 23 0 4.8 11.3 0.00 0.00 0.00 50 1014.5
20260905204510 23 45 3.2 8.0 0.00 0.00 0.00 57 1014.4
20260905204010 22 0 3.2 9.7 0.00 0.00 0.00 56 1014.4
20260905203505 22 338 3.2 11.3 0.00 0.00 0.00 54 1014.4
20260905203029 22 45 4.8 11.3 0.00 0.00 0.00 53 1014.5
20260905202505 23 45 4.8 11.3 0.00 0.00 0.00 52 1014.4
20260905202009 23 45 3.2 9.7 0.00 0.00 0.00 54 1014.5
20260905201505 23 23 4.8 9.7 0.00 0.00 0.00 53 1014.5
20260905201004 23 45 3.2 11.3 0.00 0.00 0.00 55 1014.5
20260905200509 23 45 3.2 11.3 0.00 0.00 0.00 57 1014.5
20260905200009 22 45 3.2 8.0 0.00 0.00 0.00 55 1014.5
20260905195510 22 45 3.2 8.0 0.00 0.00 0.00 56 1014.5
20260905195010 22 45 3.2 8.0 0.00 0.00 0.00 56 1014.8
20260905194504 23 23 3.2 8.0 0.00 0.00 0.00 57 1014.9
20260905194010 23 45 3.2 6.4 0.00 0.00 0.00 57 1014.9